EW1065 Weather Reports


Display with metric or nautical units.
time (UTC)temp
F
wind
direction
speed
MPH
gust
MPH
rain 1hr
in
rain 24hr
in
rain mn
in
humidity
%
barometer
mb
20260506045038 58 0.0 0.0 0.34 0.84 0.34 98 1007.0
20260506044038 59 0.0 1.0 0.20 0.69 0.19 98 1007.1
20260506043018 59 0.0 2.0 0.17 0.65 0.15 98 1006.7
20260506042019 59 0.0 0.0 0.15 0.63 0.13 98 1006.6
20260506041019 59 0.0 1.0 0.12 0.56 0.06 98 1006.8
20260506040018 59 0.0 2.0 0.07 0.50 0.50 98 1006.6
20260506035038 59 0.0 1.0 0.07 0.50 0.50 98 1006.8
20260506034039 59 0.0 3.0 0.07 0.49 0.49 98 1006.9
20260506033019 59 0.0 2.0 0.06 0.48 0.48 98 1007.1
20260506032018 59 225 1.0 3.0 0.06 0.48 0.48 98 1007.2
20260506031038 60 0.0 2.0 0.02 0.44 0.44 98 1007.4
20260506030019 60 0.0 1.0 0.01 0.43 0.43 98 1007.5
20260506025019 60 225 1.0 4.0 0.01 0.43 0.43 98 1007.6
20260506024018 60 248 1.0 5.0 0.00 0.42 0.42 98 1007.7
20260506023038 60 0.0 1.0 0.00 0.42 0.42 98 1007.8
20260506022019 60 0.0 0.0 0.00 0.42 0.42 98 1007.6
20260506021019 60 0.0 1.0 0.00 0.42 0.42 98 1007.5
20260506020019 59 0.0 0.0 0.00 0.42 0.42 98 1007.3
20260506015019 59 0.0 0.0 0.00 0.42 0.42 98 1007.2
20260506014018 59 0.0 0.0 0.00 0.42 0.42 98 1007.1
20260506013019 59 0.0 0.0 0.00 0.42 0.42 98 1006.8
20260506012039 59 0.0 0.0 0.01 0.42 0.42 98 1006.7
20260506011019 59 0.0 0.0 0.01 0.42 0.42 98 1006.7
20260506010019 59 0.0 0.0 0.01 0.42 0.42 97 1006.6
20260506005019 59 0.0 0.0 0.01 0.42 0.42 97 1006.4
20260506004018 60 0.0 0.0 0.01 0.42 0.42 97 1006.6
20260506003018 60 0.0 0.0 0.02 0.42 0.42 97 1006.7
20260506002018 60 0.0 0.0 0.02 0.41 0.41 97 1007.0
20260506001018 60 0.0 0.0 0.04 0.41 0.41 97 1006.8
20260506000019 60 0.0 0.0 0.07 0.41 0.41 97 1006.8
20260505235019 60 0.0 0.0 0.10 0.41 0.41 97 1006.8
20260505234018 61 0.0 0.0 0.11 0.41 0.41 97 1006.8
20260505233039 60 0.0 0.0 0.12 0.40 0.40 97 1007.0
20260505232019 61 0.0 0.0 0.14 0.39 0.39 97 1007.2
20260505231018 61 0.0 0.0 0.12 0.37 0.37 96 1007.3
20260505230019 61 0.0 0.0 0.09 0.34 0.34 96 1007.1
20260505225039 62 0.0 0.0 0.06 0.31 0.31 97 1007.6
20260505224019 62 0.0 0.0 0.05 0.30 0.30 97 1007.8
20260505223019 62 0.0 1.0 0.03 0.28 0.28 97 1007.6
20260505222018 63 0.0 0.0 0.00 0.25 0.25 97 1007.5
20260505221019 63 0.0 0.0 0.00 0.25 0.25 97 1007.3
20260505220019 62 0.0 0.0 0.00 0.25 0.25 97 1007.3
20260505215019 62 0.0 0.0 0.00 0.25 0.25 97 1007.4
20260505214019 62 0.0 0.0 0.00 0.25 0.25 97 1007.5
20260505213019 62 0.0 0.0 0.00 0.25 0.25 97 1007.8
20260505212039 63 0.0 0.0 0.00 0.25 0.25 96 1007.8
20260505211018 63 0.0 0.0 0.00 0.25 0.25 96 1008.0
20260505210019 63 0.0 0.0 0.01 0.25 0.25 96 1008.2
20260505205039 63 0.0 0.0 0.01 0.25 0.25 96 1008.3
20260505204039 62 0.0 0.0 0.03 0.25 0.25 96 1008.4
20260505203643 62 0.0 0.0 0.04 0.25 0.25 96 1008.5